EW4169 Weather Reports


Display with metric or nautical units.
time (UTC)temp
F
wind
direction
speed
MPH
gust
MPH
rain 1hr
in
rain 24hr
in
rain mn
in
humidity
%
barometer
mb
20260905040050 76 275 0.0 0.0 0.00 1.26 0.00 90 1009.8
20260905034533 76 275 0.0 0.0 0.00 1.26 1.26 90 1010.0
20260905033059 76 275 0.0 0.0 0.00 1.26 1.26 90 1010.1
20260905033001 76 275 0.0 0.0 0.00 1.26 1.26 90 1010.1
20260905031527 76 275 0.0 0.0 0.00 1.26 1.26 90 1010.2
20260905030008 76 275 0.0 0.0 0.00 1.26 1.26 89 1010.3
20260905024553 76 275 0.0 0.0 0.00 1.26 1.26 89 1010.4
20260905023029 76 275 0.0 0.0 0.00 1.26 1.26 89 1010.3
20260905021546 76 275 0.0 0.0 0.00 1.26 1.26 89 1010.3
20260905020034 77 275 0.0 0.0 0.00 1.26 1.26 89 1010.4
20260905014550 77 275 0.0 0.0 0.00 1.26 1.26 89 1010.5
20260905013035 77 275 0.0 0.0 0.00 1.26 1.26 88 1010.5
20260905011516 77 275 0.0 0.0 0.00 1.26 1.26 88 1010.5
20260905010032 77 275 0.0 0.0 0.00 1.26 1.26 87 1010.6
20260905004517 77 275 0.0 0.0 0.00 1.26 1.26 87 1010.4
20260905003006 77 275 0.0 0.0 0.00 1.26 1.26 87 1010.3
20260905001531 77 275 0.0 0.0 0.00 1.26 1.26 86 1010.3
20260905000051 78 275 0.0 0.0 0.00 1.26 1.26 85 1009.9
20260904234542 78 275 0.0 0.0 0.00 1.26 1.26 84 1009.6
20260904233009 79 275 0.0 0.0 0.00 1.26 1.26 82 1009.7
20260904231534 80 275 0.0 0.0 0.00 1.26 1.26 81 1010.0
20260904230015 80 275 0.0 0.0 0.00 1.26 1.26 80 1010.4
20260904224541 81 275 0.0 0.0 0.00 1.26 1.26 79 1010.6
20260904223055 81 275 0.0 0.0 0.00 1.26 1.26 77 1010.8
20260904221538 82 275 0.0 0.0 0.00 1.26 1.26 76 1010.9
20260904220054 82 276 0.0 0.0 0.00 1.26 1.26 77 1011.0
20260904214519 83 276 0.0 0.0 0.00 1.26 1.26 77 1010.7
20260904213105 83 276 0.0 0.0 0.00 1.26 1.26 74 1010.2
20260904211518 84 276 0.0 0.0 0.00 1.26 1.26 73 1010.4
20260904210047 85 276 0.0 0.0 0.00 1.26 1.26 72 1010.5
20260904204509 85 276 0.0 0.0 0.00 1.26 1.26 70 1010.6
20260904203045 85 276 0.0 0.0 0.00 1.26 1.26 70 1010.6
20260904201503 84 276 0.0 0.0 0.00 1.26 1.26 70 1010.4
20260904200025 84 276 0.0 0.0 0.00 1.26 1.26 72 1010.6
20260904194503 84 276 0.0 0.0 0.00 1.26 1.26 72 1010.8
20260904193021 84 276 0.0 0.0 0.00 1.26 1.26 71 1011.0
20260904191543 85 276 0.0 0.0 0.00 1.26 1.26 71 1011.0
20260904190024 85 276 0.0 0.0 0.00 1.26 1.26 72 1011.1
20260904184543 85 276 0.0 0.0 0.00 1.26 1.26 71 1011.3
20260904183011 85 276 0.0 0.0 0.00 1.26 1.26 71 1011.3
20260904181548 85 276 0.0 0.0 0.00 1.26 1.26 70 1011.4
20260904180015 86 278 0.0 0.0 0.00 1.26 1.26 68 1011.6
20260904174553 86 266 0.0 0.0 0.00 1.26 1.26 69 1011.6
20260904173034 86 267 0.0 0.0 0.00 1.26 1.26 68 1011.6
20260904171601 85 264 0.0 0.0 0.00 1.26 1.26 70 1011.7
20260904170034 85 264 0.0 0.0 0.00 1.26 1.26 71 1011.8
20260904164558 85 266 0.0 0.0 0.00 1.26 1.26 70 1011.8
20260904163038 84 266 0.0 0.0 0.00 1.26 1.26 72 1012.1
20260904161551 84 261 0.0 0.0 0.00 1.26 1.26 74 1012.2
20260904160020 83 259 0.0 1.0 0.00 1.26 1.26 74 1012.2
20260904154539 83 264 0.0 0.0 0.00 1.26 1.26 73 1012.0
20260904153022 83 263 0.0 3.0 0.00 1.26 1.26 75 1012.1
20260904151557 82 286 0.0 3.0 0.00 1.26 1.26 78 1012.0
20260904150031 81 264 0.0 0.0 0.00 1.26 1.26 77 1012.2
20260904144537 81 265 0.0 3.0 0.00 1.26 1.26 80 1012.2
20260904143015 80 277 0.0 0.0 0.00 1.26 1.26 81 1012.3
20260904141537 80 265 1.0 4.0 0.00 1.26 1.26 81 1012.1
20260904140104 79 273 0.0 2.0 0.00 1.26 1.26 85 1011.9
20260904134517 78 273 0.0 4.0 0.00 1.26 1.26 87 1011.8
20260904133101 77 259 0.0 3.0 0.00 1.26 1.26 89 1012.1
20260904131513 76 263 0.0 3.0 0.00 1.26 1.26 90 1012.0
20260904130050 76 258 0.0 2.0 0.00 1.26 1.26 88 1011.9
20260904124523 75 245 0.0 0.0 0.00 1.26 1.26 88 1011.9
20260904123044 74 72 0.0 0.0 0.00 1.26 1.26 89 1012.0
20260904121523 74 72 0.0 0.0 0.00 1.26 1.26 89 1012.0
20260904120051 73 72 0.0 0.0 0.00 1.26 1.26 89 1012.0
20260904114513 73 256 0.0 0.0 0.00 1.26 1.26 89 1011.9
20260904113053 72 256 0.0 0.0 0.00 1.26 1.26 89 1012.1
20260904111534 72 257 0.0 2.0 0.00 1.26 1.26 89 1011.7
20260904110055 72 262 0.0 0.0 0.00 1.26 1.26 89 1011.7
20260904104515 72 262 0.0 0.0 0.00 1.26 1.26 89 1011.2
20260904103044 72 262 0.0 0.0 0.00 1.26 1.26 89 1011.1
20260904101521 72 262 0.0 0.0 0.00 1.26 1.26 89 1011.2
20260904100046 72 262 0.0 0.0 0.00 1.26 1.26 89 1011.3
20260904094515 72 262 0.0 0.0 0.00 1.26 1.26 89 1011.1
20260904093054 72 262 0.0 0.0 0.00 1.26 1.26 89 1011.2
20260904091515 72 262 0.0 0.0 0.00 1.26 1.26 89 1011.1
20260904090041 72 262 0.0 0.0 0.00 1.45 1.26 89 1011.1
20260904084520 72 262 0.0 0.0 0.00 1.45 1.26 89 1011.1
20260904083047 72 262 0.0 0.0 0.00 1.45 1.26 89 1011.3
20260904081533 72 262 0.0 0.0 0.01 1.45 1.26 89 1011.6
20260904080054 72 262 0.0 0.0 0.06 1.45 1.26 89 1011.9
20260904074515 72 262 0.0 0.0 0.12 1.45 1.26 89 1012.1
20260904073058 72 262 0.0 0.0 0.16 1.45 1.26 89 1012.1
20260904071535 72 262 0.0 0.0 0.19 1.44 1.25 89 1012.2
20260904070055 72 262 0.0 0.0 0.34 1.39 1.20 89 1012.6
20260904064537 72 262 0.0 0.0 1.05 1.33 1.13 89 1012.9
20260904063105 72 262 0.0 0.0 1.10 1.29 1.10 90 1013.0
20260904061539 72 262 0.0 5.0 1.06 1.25 1.06 90 1014.0
20260904060103 73 265 0.0 9.0 0.85 1.04 0.87 91 1015.0
20260904054540 77 275 5.0 10.0 0.09 0.28 0.11 91 1013.9
20260904053057 78 266 0.0 0.0 0.00 0.19 0.00 89 1011.7
20260904051551 78 266 0.0 0.0 0.00 0.19 0.00 90 1011.4
20260904050058 78 266 0.0 0.0 0.00 0.19 0.00 90 1011.5
20260904050005 78 266 0.0 0.0 0.00 0.19 0.00 90 1011.5
20260904044543 77 266 0.0 0.0 0.00 0.19 0.00 90 1012.0
20260904043011 78 266 0.0 0.0 0.00 0.19 0.00 90 1011.6
20260904041549 78 266 0.0 0.0 0.00 0.19 0.00 90 1011.4